Weather in Novomykolaivka

Ukraine / Zaporizhia Region     47°58′34″N   35°54′26″E
temp.,
°C
wind,
m/s
gust,
m/s
humid.,
%
clouds,
%
prec.,
mm/h
press.,
hPa
HPBL,
m
20 january, wed
wed2023:00−17wnw229466 0.0 102220
02:00−18wnw129555 0.0 102320
05:00−19wnw11950 0.0 102420
08:00−19w11940 0.0 102520
11:00−14s11860 0.0 1027170
14:00−13s11850 0.0 1026224
17:00−16sse11920 0.0 102720
20:00−17se23910 0.0 102820
21 january, thu
thu2123:00−17se23880 0.0 102920
02:00−17se22900 0.0 102820
05:00−16se33850 0.0 102822
08:00−14se33870 0.0 102938
11:00−7sse47910 0.0 1029247
14:00−4s499328 0.0 1027399
17:00−4s5109591 0.0 1027296
20:00−5s489584 0.0 1026157
22 january, fri
fri2223:00−3s5109568 0.0 1025273
02:00−2ssw4129745 0.0 1024240
05:00−1ssw5119557 0.0 1023239
08:00+2sw6119958 0.0 1024354
11:00+2ssw512100100 0.0 1023348
14:00+2ssw513100100 0.0 1021328
17:00+2s5139592 0.0 1021318
20:00+2ssw6149388 0.0 1021302
23 january, sat
sat2323:00+2s51294100 0.0 1020286
02:00+3s61493100 0.0 1019317
05:00+3s7149196 0.0 1018338
08:00+3s6149297 0.0 1019335
11:00+4s61390100 0.0 1018366
14:00+5s6139095 0.0 1017430
17:00+4s6148895 0.0 1016288
20:00+5s6148998 0.0 1017307
24 january, sun
sun2423:00+4s61488100 0.0 1016325
02:00+4s71586100 0.0 1017294
05:00+3s61386100 0.0 1016273
08:00+4sse71587100 0.0 1016341
11:00+6sse81677100 0.0 1015486
14:00+6sse71477100 0.0 1014434
17:00+4sse71479100 0.0 1013360
20:00+3sse71678100 0.0 1013372